Time,TemperatureF,DewpointF,PressureIn,WindDirection,WindDirectionDegrees,WindSpeedMPH,WindSpeedGustMPH,Humidity,HourlyPrecipIn,Conditions,Clouds,dailyrainin,SoftwareType,DateUTC
2013-06-22 00:09:00,69.2,60.0,30.20,West,271,0.0,3.0,73,0.00,,,0.00,weatherlink.com 1.10,2013-06-22 04:09:00,
2013-06-22 00:24:00,68.8,60.0,30.20,SW,223,0.0,1.0,74,0.00,,,0.00,weatherlink.com 1.10,2013-06-22 04:24:00,
2013-06-22 00:39:00,68.2,60.0,30.19,WSW,237,0.0,2.0,74,0.00,,,0.00,weatherlink.com 1.10,2013-06-22 04:39:00,
2013-06-22 00:54:00,67.7,59.0,30.19,WNW,297,0.0,1.0,74,0.00,,,0.00,weatherlink.com 1.10,2013-06-22 04:54:00,
2013-06-22 01:09:00,67.4,59.0,30.20,West,277,0.0,1.0,74,0.00,,,0.00,weatherlink.com 1.10,2013-06-22 05:09:00,
2013-06-22 01:24:00,66.9,59.0,30.20,WSW,241,0.0,1.0,75,0.00,,,0.00,weatherlink.com 1.10,2013-06-22 05:24:00,
2013-06-22 01:39:00,66.3,59.0,30.20,West,263,0.0,1.0,76,0.00,,,0.00,weatherlink.com 1.10,2013-06-22 05:39:00,
2013-06-22 01:54:00,66.0,58.0,30.20,WSW,241,0.0,1.0,76,0.00,,,0.00,weatherlink.com 1.10,2013-06-22 05:54:00,
2013-06-22 02:09:00,65.8,58.0,30.20,WSW,248,0.0,1.0,76,0.00,,,0.00,weatherlink.com 1.10,2013-06-22 06:09:00,
2013-06-22 02:24:00,65.0,58.0,30.20,WSW,248,0.0,1.0,77,0.00,,,0.00,weatherlink.com 1.10,2013-06-22 06:24:00,
2013-06-22 02:39:00,64.8,57.0,30.20,WSW,238,1.0,1.0,77,0.00,,,0.00,weatherlink.com 1.10,2013-06-22 06:39:00,
2013-06-22 02:54:00,64.7,57.0,30.20,SW,223,0.0,2.0,77,0.00,,,0.00,weatherlink.com 1.10,2013-06-22 06:54:00,
2013-06-22 03:09:00,64.4,57.0,30.20,WSW,249,0.0,1.0,77,0.00,,,0.00,weatherlink.com 1.10,2013-06-22 07:09:00,
2013-06-22 03:24:00,64.1,57.0,30.20,WSW,248,0.0,0.0,78,0.00,,,0.00,weatherlink.com 1.10,2013-06-22 07:24:00,
2013-06-22 03:39:00,63.5,57.0,30.20,WSW,248,0.0,0.0,79,0.00,,,0.00,weatherlink.com 1.10,2013-06-22 07:39:00,
2013-06-22 03:54:00,63.5,57.0,30.19,WSW,249,0.0,0.0,79,0.00,,,0.00,weatherlink.com 1.10,2013-06-22 07:54:00,
2013-06-22 04:09:00,63.3,57.0,30.19,WSW,249,0.0,1.0,79,0.00,,,0.00,weatherlink.com 1.10,2013-06-22 08:09:00,
2013-06-22 04:24:00,63.5,57.0,30.19,WSW,238,0.0,0.0,79,0.00,,,0.00,weatherlink.com 1.10,2013-06-22 08:24:00,
2013-06-22 04:39:00,63.0,57.0,30.19,WSW,238,0.0,0.0,80,0.00,,,0.00,weatherlink.com 1.10,2013-06-22 08:39:00,
2013-06-22 04:54:00,62.5,56.0,30.19,WSW,238,0.0,1.0,80,0.00,,,0.00,weatherlink.com 1.10,2013-06-22 08:54:00,
2013-06-22 05:10:00,62.5,56.0,30.19,WSW,238,0.0,0.0,80,0.00,,,0.00,weatherlink.com 1.10,2013-06-22 09:10:00,
2013-06-22 05:25:00,62.9,56.0,30.20,WSW,257,0.0,1.0,79,0.00,,,0.00,weatherlink.com 1.10,2013-06-22 09:25:00,
2013-06-22 05:40:00,62.8,56.0,30.20,WSW,257,0.0,0.0,79,0.00,,,0.00,weatherlink.com 1.10,2013-06-22 09:40:00,
2013-06-22 05:55:00,62.7,56.0,30.20,WSW,257,0.0,0.0,80,0.00,,,0.00,weatherlink.com 1.10,2013-06-22 09:55:00,
2013-06-22 06:10:00,63.1,56.0,30.20,SW,231,0.0,2.0,78,0.00,,,0.00,weatherlink.com 1.10,2013-06-22 10:10:00,
2013-06-22 06:25:00,63.7,56.0,30.19,NW,306,1.0,2.0,76,0.00,,,0.00,weatherlink.com 1.10,2013-06-22 10:25:00,
2013-06-22 06:40:00,64.4,56.0,30.19,West,260,1.0,2.0,75,0.00,,,0.00,weatherlink.com 1.10,2013-06-22 10:40:00,
2013-06-22 06:55:00,65.1,57.0,30.19,WSW,252,0.0,3.0,74,0.00,,,0.00,weatherlink.com 1.10,2013-06-22 10:55:00,
2013-06-22 07:10:00,65.9,57.0,30.20,WSW,246,0.0,3.0,73,0.00,,,0.00,weatherlink.com 1.10,2013-06-22 11:10:00,
2013-06-22 07:25:00,67.0,58.0,30.19,WNW,299,0.0,2.0,72,0.00,,,0.00,weatherlink.com 1.10,2013-06-22 11:25:00,
2013-06-22 07:40:00,67.7,58.0,30.19,WNW,302,2.0,3.0,71,0.00,,,0.00,weatherlink.com 1.10,2013-06-22 11:40:00,
2013-06-22 07:55:00,68.8,59.0,30.18,WNW,292,0.0,3.0,70,0.00,,,0.00,weatherlink.com 1.10,2013-06-22 11:55:00,
2013-06-22 08:10:00,69.8,59.0,30.18,WSW,249,1.0,5.0,68,0.00,,,0.00,weatherlink.com 1.10,2013-06-22 12:10:00,
2013-06-22 08:25:00,70.1,59.0,30.18,West,271,3.0,6.0,67,0.00,,,0.00,weatherlink.com 1.10,2013-06-22 12:25:00,
2013-06-22 08:40:00,71.3,60.0,30.18,WSW,251,3.0,5.0,67,0.00,,,0.00,weatherlink.com 1.10,2013-06-22 12:40:00,
2013-06-22 08:55:00,72.0,60.0,30.19,East,87,1.0,5.0,67,0.00,,,0.00,weatherlink.com 1.10,2013-06-22 12:55:00,
2013-06-22 09:10:00,73.0,60.0,30.19,NNE,27,0.0,5.0,65,0.00,,,0.00,weatherlink.com 1.10,2013-06-22 13:10:00,
2013-06-22 09:25:00,74.1,61.0,30.18,WNW,291,1.0,5.0,64,0.00,,,0.00,weatherlink.com 1.10,2013-06-22 13:25:00,
2013-06-22 09:40:00,74.9,62.0,30.18,WSW,243,2.0,5.0,64,0.00,,,0.00,weatherlink.com 1.10,2013-06-22 13:40:00,
2013-06-22 09:55:00,76.0,62.0,30.19,East,87,0.0,5.0,62,0.00,,,0.00,weatherlink.com 1.10,2013-06-22 13:55:00,
2013-06-22 10:10:00,76.0,61.0,30.19,West,273,1.0,6.0,60,0.00,,,0.00,weatherlink.com 1.10,2013-06-22 14:10:00,
2013-06-22 10:25:00,76.9,62.0,30.18,NW,320,2.0,6.0,61,0.00,,,0.00,weatherlink.com 1.10,2013-06-22 14:25:00,
2013-06-22 10:40:00,77.1,62.0,30.18,West,262,3.0,8.0,60,0.00,,,0.00,weatherlink.com 1.10,2013-06-22 14:40:00,
2013-06-22 10:55:00,78.3,62.0,30.19,West,263,2.0,7.0,58,0.00,,,0.00,weatherlink.com 1.10,2013-06-22 14:55:00,
2013-06-22 11:10:00,78.7,63.0,30.19,SW,223,3.0,8.0,58,0.00,,,0.00,weatherlink.com 1.10,2013-06-22 15:10:00,
2013-06-22 11:25:00,79.1,63.0,30.19,ENE,66,0.0,8.0,59,0.00,,,0.00,weatherlink.com 1.10,2013-06-22 15:25:00,
2013-06-22 11:40:00,79.8,64.0,30.19,WSW,240,7.0,8.0,58,0.00,,,0.00,weatherlink.com 1.10,2013-06-22 15:40:00,
2013-06-22 11:55:00,79.7,63.0,30.19,WSW,254,4.0,9.0,56,0.00,,,0.00,weatherlink.com 1.10,2013-06-22 15:55:00,
2013-06-22 12:10:00,80.9,64.0,30.19,WSW,237,3.0,8.0,56,0.00,,,0.00,weatherlink.com 1.10,2013-06-22 16:10:00,
2013-06-22 12:25:00,81.7,63.0,30.18,WSW,252,8.0,10.0,54,0.00,,,0.00,weatherlink.com 1.10,2013-06-22 16:25:00,
2013-06-22 12:40:00,82.3,63.0,30.18,NNW,348,3.0,9.0,52,0.00,,,0.00,weatherlink.com 1.10,2013-06-22 16:40:00,
2013-06-22 12:55:00,82.1,63.0,30.18,SE,140,1.0,10.0,53,0.00,,,0.00,weatherlink.com 1.10,2013-06-22 16:55:00,
2013-06-22 13:10:00,82.8,63.0,30.17,West,263,1.0,8.0,52,0.00,,,0.00,weatherlink.com 1.10,2013-06-22 17:10:00,
2013-06-22 13:25:00,83.4,63.0,30.17,West,275,3.0,7.0,51,0.00,,,0.00,weatherlink.com 1.10,2013-06-22 17:25:00,
2013-06-22 13:40:00,83.4,62.0,30.16,SW,229,0.0,7.0,49,0.00,,,0.00,weatherlink.com 1.10,2013-06-22 17:40:00,
2013-06-22 13:55:00,84.4,62.0,30.16,ESE,109,1.0,8.0,47,0.00,,,0.00,weatherlink.com 1.10,2013-06-22 17:55:00,
2013-06-22 14:11:00,84.4,62.0,30.16,West,273,3.0,9.0,47,0.00,,,0.00,weatherlink.com 1.10,2013-06-22 18:11:00,
2013-06-22 14:26:00,84.9,61.0,30.15,WSW,242,3.0,6.0,45,0.00,,,0.00,weatherlink.com 1.10,2013-06-22 18:26:00,
2013-06-22 14:41:00,85.0,61.0,30.15,WSW,253,7.0,10.0,45,0.00,,,0.00,weatherlink.com 1.10,2013-06-22 18:41:00,
2013-06-22 14:56:00,85.1,61.0,30.15,WSW,250,7.0,9.0,45,0.00,,,0.00,weatherlink.com 1.10,2013-06-22 18:56:00,
2013-06-22 15:11:00,85.4,60.0,30.14,West,274,1.0,6.0,42,0.00,,,0.00,weatherlink.com 1.10,2013-06-22 19:11:00,
2013-06-22 15:26:00,85.4,60.0,30.13,NE,53,2.0,6.0,43,0.00,,,0.00,weatherlink.com 1.10,2013-06-22 19:26:00,
2013-06-22 15:41:00,85.2,60.0,30.12,NNW,332,3.0,7.0,43,0.00,,,0.00,weatherlink.com 1.10,2013-06-22 19:41:00,
2013-06-22 15:56:00,85.6,60.0,30.12,West,280,4.0,8.0,42,0.00,,,0.00,weatherlink.com 1.10,2013-06-22 19:56:00,
2013-06-22 16:11:00,86.1,61.0,30.11,WSW,252,3.0,5.0,43,0.00,,,0.00,weatherlink.com 1.10,2013-06-22 20:11:00,
2013-06-22 16:26:00,85.6,61.0,30.11,West,265,6.0,7.0,43,0.00,,,0.00,weatherlink.com 1.10,2013-06-22 20:26:00,
2013-06-22 16:41:00,85.2,61.0,30.10,WNW,294,5.0,7.0,44,0.00,,,0.00,weatherlink.com 1.10,2013-06-22 20:41:00,
2013-06-22 16:56:00,85.8,62.0,30.10,SSW,198,4.0,4.0,45,0.00,,,0.00,weatherlink.com 1.10,2013-06-22 20:56:00,
2013-06-22 17:11:00,85.0,59.0,30.10,SSW,207,1.0,6.0,42,0.00,,,0.00,weatherlink.com 1.10,2013-06-22 21:11:00,
2013-06-22 17:26:00,84.9,61.0,30.10,WNW,290,2.0,8.0,45,0.00,,,0.00,weatherlink.com 1.10,2013-06-22 21:26:00,
2013-06-22 17:41:00,84.2,61.0,30.10,West,278,5.0,6.0,45,0.00,,,0.00,weatherlink.com 1.10,2013-06-22 21:41:00,
2013-06-22 17:56:00,83.9,61.0,30.10,SSW,211,4.0,5.0,46,0.00,,,0.00,weatherlink.com 1.10,2013-06-22 21:56:00,
2013-06-22 18:11:00,82.8,61.0,30.10,WNW,299,1.0,7.0,48,0.00,,,0.00,weatherlink.com 1.10,2013-06-22 22:11:00,
2013-06-22 18:26:00,82.6,61.0,30.10,NE,54,0.0,5.0,48,0.00,,,0.00,weatherlink.com 1.10,2013-06-22 22:26:00,
2013-06-22 18:41:00,81.9,62.0,30.10,ENE,73,1.0,7.0,51,0.00,,,0.00,weatherlink.com 1.10,2013-06-22 22:41:00,
2013-06-22 18:56:00,80.4,63.0,30.10,ENE,74,1.0,6.0,55,0.00,,,0.00,weatherlink.com 1.10,2013-06-22 22:56:00,
2013-06-22 19:11:00,78.3,62.0,30.09,ENE,75,1.0,8.0,58,0.00,,,0.00,weatherlink.com 1.10,2013-06-22 23:11:00,
2013-06-22 19:26:00,77.4,62.0,30.10,ESE,109,0.0,4.0,60,0.00,,,0.00,weatherlink.com 1.10,2013-06-22 23:26:00,
2013-06-22 19:41:00,76.7,62.0,30.10,SE,135,1.0,3.0,61,0.00,,,0.00,weatherlink.com 1.10,2013-06-22 23:41:00,
2013-06-22 19:56:00,75.8,62.0,30.10,West,273,0.0,5.0,62,0.00,,,0.00,weatherlink.com 1.10,2013-06-22 23:56:00,
2013-06-22 20:11:00,74.9,61.0,30.10,NNE,12,0.0,0.0,63,0.00,,,0.00,weatherlink.com 1.10,2013-06-23 00:11:00,
2013-06-22 20:26:00,74.0,61.0,30.11,East,86,0.0,3.0,65,0.00,,,0.00,weatherlink.com 1.10,2013-06-23 00:26:00,
2013-06-22 20:41:00,73.2,61.0,30.11,WSW,238,0.0,1.0,65,0.00,,,0.00,weatherlink.com 1.10,2013-06-23 00:41:00,
2013-06-22 20:56:00,72.8,61.0,30.11,ESE,115,0.0,0.0,66,0.00,,,0.00,weatherlink.com 1.10,2013-06-23 00:56:00,
2013-06-22 21:11:00,72.5,60.0,30.12,WSW,253,0.0,2.0,66,0.00,,,0.00,weatherlink.com 1.10,2013-06-23 01:11:00,
2013-06-22 21:26:00,72.0,60.0,30.13,West,269,0.0,5.0,66,0.00,,,0.00,weatherlink.com 1.10,2013-06-23 01:26:00,
2013-06-22 21:41:00,71.4,59.0,30.13,SSE,148,0.0,3.0,66,0.00,,,0.00,weatherlink.com 1.10,2013-06-23 01:41:00,
2013-06-22 21:56:00,71.1,59.0,30.14,WNW,283,1.0,4.0,65,0.00,,,0.00,weatherlink.com 1.10,2013-06-23 01:56:00,
2013-06-22 22:11:00,70.7,58.0,30.14,West,272,0.0,5.0,64,0.00,,,0.00,weatherlink.com 1.10,2013-06-23 02:11:00,
2013-06-22 22:26:00,70.1,58.0,30.14,WNW,286,0.0,2.0,65,0.00,,,0.00,weatherlink.com 1.10,2013-06-23 02:26:00,
2013-06-22 22:41:00,69.7,57.0,30.14,WNW,286,1.0,3.0,65,0.00,,,0.00,weatherlink.com 1.10,2013-06-23 02:41:00,
2013-06-22 22:56:00,69.4,57.0,30.14,West,273,0.0,4.0,65,0.00,,,0.00,weatherlink.com 1.10,2013-06-23 02:56:00,
2013-06-22 23:11:00,69.2,57.0,30.14,WSW,245,0.0,5.0,65,0.00,,,0.00,weatherlink.com 1.10,2013-06-23 03:11:00,
2013-06-22 23:26:00,69.2,57.0,30.14,West,265,0.0,4.0,65,0.00,,,0.00,weatherlink.com 1.10,2013-06-23 03:26:00,
2013-06-22 23:41:00,69.0,57.0,30.14,NW,313,2.0,6.0,65,0.00,,,0.00,weatherlink.com 1.10,2013-06-23 03:41:00,
2013-06-22 23:56:00,68.8,56.0,30.14,NW,321,1.0,4.0,65,0.00,,,0.00,weatherlink.com 1.10,2013-06-23 03:56:00,